TimeCST,TemperatureF,Dew PointF,Humidity,Sea Level PressureIn,VisibilityMPH,Wind Direction,Wind SpeedMPH,Gust SpeedMPH,PrecipitationIn,Events,Conditions,WindDirDegrees,DateUTC
12:15 AM,26.6,21.2,80,30.46,4.0,Calm,Calm,-,N/A,,Clear,0,2013-01-10 06:15:00
12:35 AM,24.8,21.2,86,30.45,2.5,Calm,Calm,-,N/A,,Clear,0,2013-01-10 06:35:00
12:55 AM,24.8,21.2,86,30.45,1.0,Calm,Calm,-,N/A,,Mist,0,2013-01-10 06:55:00
2:15 AM,24.8,21.2,86,30.44,0.8,Calm,Calm,-,N/A,,Mist,0,2013-01-10 08:15:00
2:35 AM,26.6,23.0,86,30.44,4.0,Calm,Calm,-,N/A,,Clear,0,2013-01-10 08:35:00
2:55 AM,26.6,21.2,80,30.43,7.0,Calm,Calm,-,N/A,,Clear,0,2013-01-10 08:55:00
3:15 AM,26.6,23.0,86,30.43,7.0,Calm,Calm,-,N/A,,Clear,0,2013-01-10 09:15:00
3:35 AM,26.6,23.0,86,30.43,7.0,Calm,Calm,-,N/A,,Clear,0,2013-01-10 09:35:00
3:55 AM,26.6,21.2,80,30.43,7.0,Calm,Calm,-,N/A,,Clear,0,2013-01-10 09:55:00
4:15 AM,24.8,21.2,86,30.42,7.0,Calm,Calm,-,N/A,,Clear,0,2013-01-10 10:15:00
4:35 AM,24.8,21.2,86,30.41,7.0,Calm,Calm,-,N/A,,Clear,0,2013-01-10 10:35:00
4:55 AM,26.6,21.2,80,30.41,10.0,Calm,Calm,-,N/A,,Clear,0,2013-01-10 10:55:00
5:15 AM,26.6,21.2,80,30.40,7.0,Calm,Calm,-,N/A,,Clear,0,2013-01-10 11:15:00
5:35 AM,24.8,21.2,86,30.38,7.0,Calm,Calm,-,N/A,,Clear,0,2013-01-10 11:35:00
5:55 AM,24.8,21.2,86,30.39,10.0,Calm,Calm,-,N/A,,Clear,0,2013-01-10 11:55:00
6:35 AM,24.8,21.2,86,30.38,10.0,Calm,Calm,-,N/A,,Clear,0,2013-01-10 12:35:00
6:55 AM,26.6,21.2,80,30.38,10.0,Calm,Calm,-,N/A,,Clear,0,2013-01-10 12:55:00
7:15 AM,26.6,23.0,86,30.37,10.0,Calm,Calm,-,N/A,,Clear,0,2013-01-10 13:15:00
7:35 AM,26.6,23.0,86,30.36,10.0,Calm,Calm,-,N/A,,Clear,0,2013-01-10 13:35:00
7:55 AM,30.2,26.6,86,30.35,10.0,ESE,4.6,-,N/A,,Clear,120,2013-01-10 13:55:00
8:15 AM,33.8,26.6,75,30.35,10.0,ESE,4.6,-,N/A,,Clear,120,2013-01-10 14:15:00
8:35 AM,35.6,24.8,65,30.34,10.0,ESE,8.1,-,N/A,,Clear,110,2013-01-10 14:35:00
8:55 AM,37.4,24.8,60,30.32,10.0,East,3.5,-,N/A,,Clear,90,2013-01-10 14:55:00
9:15 AM,37.4,26.6,65,30.31,10.0,East,4.6,-,N/A,,Clear,100,2013-01-10 15:15:00
9:35 AM,37.4,24.8,60,30.30,10.0,East,5.8,-,N/A,,Clear,100,2013-01-10 15:35:00
9:55 AM,37.4,26.6,65,30.29,10.0,East,3.5,-,N/A,,Clear,80,2013-01-10 15:55:00
10:15 AM,39.2,26.6,61,30.27,10.0,East,5.8,-,N/A,,Clear,100,2013-01-10 16:15:00
10:35 AM,39.2,24.8,56,30.25,10.0,East,8.1,-,N/A,,Scattered Clouds,100,2013-01-10 16:35:00
10:55 AM,41.0,24.8,53,30.23,10.0,East,8.1,-,N/A,,Scattered Clouds,90,2013-01-10 16:55:00
11:15 AM,42.8,23.0,46,30.21,10.0,East,8.1,-,N/A,,Clear,100,2013-01-10 17:15:00
11:35 AM,42.8,21.2,42,30.19,10.0,ESE,9.2,-,N/A,,Clear,120,2013-01-10 17:35:00
11:55 AM,42.8,21.2,42,30.17,10.0,East,9.2,-,N/A,,Clear,100,2013-01-10 17:55:00
12:15 PM,42.8,21.2,42,30.14,10.0,East,10.4,-,N/A,,Clear,100,2013-01-10 18:15:00
12:35 PM,42.8,21.2,42,30.13,10.0,ESE,6.9,17.3,N/A,,Clear,120,2013-01-10 18:35:00
12:55 PM,42.8,23.0,46,30.11,10.0,ESE,11.5,17.3,N/A,,Scattered Clouds,120,2013-01-10 18:55:00
1:35 PM,42.8,24.8,49,30.08,10.0,East,8.1,-,N/A,,Overcast,100,2013-01-10 19:35:00
1:55 PM,42.8,24.8,49,30.07,10.0,East,8.1,-,N/A,,Overcast,100,2013-01-10 19:55:00
2:15 PM,42.8,26.6,53,30.05,10.0,East,6.9,-,N/A,,Overcast,90,2013-01-10 20:15:00
2:35 PM,42.8,26.6,53,30.04,10.0,East,12.7,-,N/A,,Overcast,100,2013-01-10 20:35:00
2:55 PM,42.8,28.4,57,30.04,10.0,ESE,11.5,-,N/A,,Overcast,120,2013-01-10 20:55:00
3:15 PM,39.2,33.8,81,30.05,1.8,ESE,12.7,-,N/A,Rain,Rain,120,2013-01-10 21:15:00
3:35 PM,37.4,33.8,87,30.03,2.5,East,9.2,-,0.04,Rain,Light Rain,100,2013-01-10 21:35:00
3:55 PM,37.4,33.8,87,30.02,7.0,East,6.9,-,0.05,,Overcast,100,2013-01-10 21:55:00
4:15 PM,39.2,35.6,87,30.02,7.0,SE,9.2,-,N/A,,Overcast,130,2013-01-10 22:15:00
4:35 PM,39.2,35.6,87,29.99,10.0,ESE,9.2,-,N/A,,Overcast,110,2013-01-10 22:35:00
4:55 PM,39.2,35.6,87,30.00,5.0,SE,9.2,-,N/A,,Overcast,130,2013-01-10 22:55:00
5:15 PM,39.2,35.6,87,29.98,4.0,ESE,10.4,-,0.01,,Drizzle,110,2013-01-10 23:15:00
5:35 PM,39.2,35.6,87,29.97,2.5,ESE,9.2,-,0.01,,Overcast,120,2013-01-10 23:35:00
5:55 PM,39.2,35.6,87,29.97,2.5,ESE,8.1,-,0.01,,Overcast,110,2013-01-10 23:55:00
6:15 PM,39.2,35.6,87,29.95,2.0,ESE,9.2,-,N/A,,Light Drizzle,110,2013-01-11 00:15:00
6:35 PM,39.2,35.6,87,29.95,1.5,ESE,5.8,-,0.01,Rain,Rain,120,2013-01-11 00:35:00
6:55 PM,39.2,35.6,87,29.94,2.0,ESE,5.8,-,0.06,Rain,Rain,110,2013-01-11 00:55:00
7:15 PM,39.2,35.6,87,29.92,2.5,ESE,8.1,-,0.07,,Overcast,110,2013-01-11 01:15:00
7:35 PM,39.2,35.6,87,29.90,2.5,East,3.5,-,0.12,Rain,Rain,100,2013-01-11 01:35:00
7:55 PM,39.2,35.6,87,29.91,2.5,SE,4.6,-,0.16,Rain,Rain,140,2013-01-11 01:55:00
8:15 PM,39.2,35.6,87,29.91,2.5,ESE,3.5,-,0.07,Rain,Rain,120,2013-01-11 02:15:00
8:35 PM,39.2,35.6,87,29.89,4.0,ESE,5.8,-,0.16,Rain,Rain,110,2013-01-11 02:35:00
8:55 PM,39.2,35.6,87,29.88,4.0,Calm,Calm,-,0.20,Rain,Light Rain,0,2013-01-11 02:55:00
9:15 PM,39.2,35.6,87,29.87,2.5,East,3.5,-,0.03,Rain,Light Rain,90,2013-01-11 03:15:00
9:35 PM,39.2,35.6,87,29.87,3.0,Calm,Calm,-,0.05,Rain,Rain,0,2013-01-11 03:35:00
9:55 PM,37.4,33.8,87,29.85,1.8,Calm,Calm,-,0.05,Rain,Light Rain,0,2013-01-11 03:55:00
10:15 PM,39.2,35.6,87,29.82,2.5,ENE,3.5,-,0.01,Rain,Light Rain,60,2013-01-11 04:15:00
10:35 PM,37.4,35.6,93,29.81,1.5,Calm,Calm,-,0.01,,Light Drizzle,0,2013-01-11 04:35:00
11:15 PM,39.2,35.6,87,29.78,1.8,Calm,Calm,-,N/A,,Overcast,0,2013-01-11 05:15:00
11:35 PM,39.2,35.6,87,29.78,2.0,Calm,Calm,-,N/A,,Overcast,0,2013-01-11 05:35:00
11:55 PM,42.8,37.4,81,29.78,3.0,SE,4.6,-,N/A,,Overcast,130,2013-01-11 05:55:00